Location: Buena Vista
(37.7110°N, 119.7938°W)
Time: 23:47:17
(UTC+00:00)

Hubble Space Telescope - Pass Details

Date: 17 August 2024
Orbit: 505 x 509 km, 28.5° (Epoch: 16 September)

Event Time Altitude Azimuth Distance (km) Brightness Sun altitude
Exits shadow 11:17:47 17° 145° (SE) 1,344 2.7 -21.7°
Drops below altitude 10° 11:19:15 10° 127° (SE) 1,712 3.5 -21.5°
Sets 11:21:53 0° 110° (ESE) 2,598 4.7 -21.0°
